Weather in Montegiardino

San Marino     43°54′32″N   12°29′06″E
temp.,
°C
wind,
m/s
gust,
m/s
humid.,
%
clouds,
%
prec.,
mm/h
press.,
hPa
HPBL,
m
22 january, sat
sat2201:00+3sse24651 0.1 1027118
04:00+2sw22590 0.0 102663
07:00+1w22600 0.0 102641
10:00+4wnw12480 0.0 1026188
13:00+8nnw22370 0.0 1025527
16:00+7n22480 0.0 1025137
19:00+4wsw11540 0.0 102742
22:00+4ssw11550 0.0 102930
23 january, sun
sun2301:00+3ssw11560 0.0 102925
04:00+3sw11570 0.0 102927
07:00+2wsw11595 0.0 102927
10:00+5w115343 0.0 1030152
13:00+7nne11525 0.0 1030404
16:00+7n22570 0.0 1029135
19:00+4w22650 0.0 102951
22:00+3w11711 0.0 103039
24 january, mon
mon2401:00+3w11745 0.0 103038
04:00+2wsw11765 0.0 103133
07:00+2ssw117862 0.0 103129
10:00+6e476757 0.0 1032727
13:00+7ene676226 0.0 1032890
16:00+6ese466349 0.1 1032630
19:00+4sse246331 0.1 1034177
22:00+3ssw225725 0.0 103558
25 january, tue
tue2501:00+3sw11595 0.0 103557
04:00+2sw21655 0.0 103427
07:00+2ssw22660 0.0 103331
10:00+5nnw00572 0.0 1033201
13:00+7ne11550 0.0 1032581
16:00+6ene22630 0.0 1031237
19:00+4s11730 0.0 103249
22:00+3wsw11745 0.0 103230
26 january, wed
wed2601:00+3wsw22765 0.0 103131
04:00+2wsw11782 0.0 103032
07:00+2wsw11780 0.0 103133
10:00+5nw11675 0.0 1031201
13:00+7nne21617 0.0 1031518
16:00+6nne11665 0.0 1030280
19:00+4ssw11775 0.0 103040
22:00+3wsw22790 0.0 103035